Regional Weather Roundup
Issued by NWS

Home | Current Version | Previous Version | Graphics & Text | Print | Product List | Glossary On
Versions: 1 2 3 4 5 6 7 8 9 10 11 12 13 14 15 16 17 18 19 20 21 22 23 24 25 26 27 28 29 30 31 32 33 34 35 36 37 38 39 40 41 42 43 44 45 46 47 48 49 50
000
ASUS43 KTOP 202259
RWRKS

WEATHER ROUNDUP FOR KANSAS
NATIONAL WEATHER SERVICE GOODLAND KS
500 PM CST TUE FEB 20 2018

NOTE:  "FAIR" INDICATES FEW OR NO CLOUDS BELOW 12,000 FEET WITH NO
SIGNIFICANT WEATHER AND/OR OBSTRUCTIONS TO VISIBILITY.

KSZ001>006-013>018-027>032-041>047-210000-
NORTHWEST KANSAS

CITY           SKY/WX    TMP DP  RH WIND       PRES   REMARKS
GOODLAND       FAIR      16   1  51 N13       30.14R WCI   2
HAYS           FAIR      27   6  41 N18       30.22R WCI  14
HILL CITY      FAIR      25   4  40 N15       30.23R WCI  13
RUSSELL        FAIR      28   7  41 N15       30.21R WCI  16
$$

KSZ061>065-074>080-084>089-210000-
SOUTHWEST KANSAS

CITY           SKY/WX    TMP DP  RH WIND       PRES   REMARKS
DODGE CITY     FAIR      30   3  31 N17G26    30.14R WCI  18
GARDEN CITY    FAIR      27   0  31 NE21      30.15R WCI  13
GREAT BEND     FAIR      27  10  49 N18       30.20R WCI  14
LIBERAL        FAIR      32   4  30 N18       30.12R WCI  20
$$

KSZ066>073-081>083-090>101-210000-
SOUTHEAST KANSAS

CITY           SKY/WX    TMP DP  RH WIND       PRES   REMARKS
CHANUTE        PTSUNNY   26  23  88 N16G22    30.15R WCI  14
COFFEYVILLE    FRZ RAIN  29  27  92 N15       30.14R FOG     WCI  18
HUTCHINSON     PTSUNNY   26  19  74 N14G22    30.19R WCI  14
MEDICINE LODGE   N/A     31  18  58 N18G28    30.16R WCI  19
NEWTON         CLOUDY    22  18  85 N21       30.18R WCI   6
PARSONS        MIX PCPN  28  26  92 N13G21    30.14F WCI  17
WICHITA INTL   PTSUNNY   25  19  78 N17       30.17R WCI  12
WICHITA JABRA  CLOUDY    23  19  85 N22G28    30.17R WCI   8
WICHITA MCCONL CLOUDY    24  19  80 N17G24    30.17R WCI  10
WINFIELD       CLOUDY    25  23  92 N16       30.16S WCI  12
$$

KSZ007>012-019>026-033>040-048>060-102>105-210000-
NORTHEAST KANSAS

CITY           SKY/WX    TMP DP  RH WIND       PRES   REMARKS
CONCORDIA      FAIR      25  10  53 N18G25    30.23R WCI  11
EMPORIA        CLOUDY    23  18  81 N10G22    30.19R WCI  12
LAWRENCE       CLOUDY    25  19  78 NW15      30.21R WCI  13
MANHATTAN      PTSUNNY   25  14  63 N6G17     30.24R
OLATHE IND     CLOUDY    23  20  88 NW17      30.19R WCI   9
OLATHE EXE     CLOUDY    23  20  88 N13       30.17R WCI  11
SALINA         PTSUNNY   27  17  66 N20       30.22R WCI  13
TOPEKA BILLARD CLOUDY    25  20  81 NW10      30.22R WCI  15
TOPEKA FORBES  CLOUDY    25  19  78 N15       30.20R WCI  13
$$




USA.gov is the U.S. government's official web portal to all federal, state and local government web resources and services.